Mount Holly, NJ

12:36 AM EDT on April 27, 2017 (GMT -0400)
South Jersey Regional

Weather History for KVAY - December, 2013

Change the Weather History Date:

Saturday, December 14, 2013

  Actual Average (KPNE) Record (KPNE)
Temperature  
Mean Temperature 30 °F -  
Max Temperature 35 °F 44 °F 70 °F (2015)
Min Temperature 25 °F 29 °F 12 °F (2005)
Degree Days  
Heating Degree Days 35    
Moisture  
Dew Point 29 °F    
Average Humidity 88    
Maximum Humidity 96    
Minimum Humidity 66    
Precipitation  
Precipitation 0.58 in - - ()
Sea Level Pressure  
Sea Level Pressure 30.16 in    
Wind  
Wind Speed 5 mph (NE)    
Max Wind Speed 12 mph    
Max Gust Speed 18 mph    
Visibility 5 miles    
Events Rain , Snow    
Averages and records for this station are not official NWS values.
T = Trace of Precipitation, MM = Missing Value Source: NWS Daily Summary

Daily Weather History Graph

Daily Weather History Graph

Search for Another Location

Airport or City:

Trip Planner

Search our weather history database for the weather conditions in past years. The results will help you decide how hot, cold, wet, or windy it might be!

Date:

Astronomy

Dec. 14, 2013 Rise Set
Actual Time 7:13 AM EST 4:35 PM EST
Civil Twilight 6:42 AM EST 5:05 PM EST
Nautical Twilight 6:08 AM EST 5:39 PM EST
Astronomical Twilight 5:35 AM EST 6:12 PM EST
Moon 2:55 PM EST (12/14) 4:31 AM EST (12/14)
Length of Visible Light 10h 22m
Length of Day
9h 21m
Waxing Gibbous, 93% of the Moon is Illuminated
Dec 14
Waxing Gibbous
Dec 17
Full
Dec 25
Last Quarter
Jan 1
New
Jan 7
First Quarter

Hourly Weather History & Observations

Time (EST) Temp. Windchill Dew Point Humidity Pressure Visibility Wind Dir Wind Speed Gust Speed Precip Events Conditions
12:54 AM 26.1 °F - 19.0 °F 75% 30.33 in 10.0 mi Calm Calm - N/A   Clear
1:54 AM 25.0 °F 20.7 °F 19.9 °F 81% 30.35 in 10.0 mi SE 3.5 mph - N/A   Clear
2:54 AM 26.1 °F - 21.0 °F 81% 30.35 in 10.0 mi Calm Calm - N/A   Clear
3:54 AM 27.0 °F 23.0 °F 21.0 °F 78% 30.36 in 10.0 mi NNE 3.5 mph - N/A   Scattered Clouds
4:54 AM 27.0 °F - 21.0 °F 78% 30.37 in 10.0 mi Calm Calm - N/A   Overcast
5:54 AM 28.9 °F - 19.9 °F 69% 30.39 in 10.0 mi Calm Calm - N/A   Overcast
6:54 AM 30.0 °F 25.2 °F 19.9 °F 66% 30.39 in 10.0 mi East 4.6 mph - N/A   Overcast
7:54 AM 30.9 °F 27.5 °F 24.1 °F 76% 30.42 in 10.0 mi NNE 3.5 mph - N/A   Overcast
8:54 AM 32.0 °F 25.6 °F 25.0 °F 75% 30.43 in 10.0 mi ENE 6.9 mph - N/A   Overcast
9:54 AM 32.0 °F 25.6 °F 25.0 °F 75% 30.43 in 10.0 mi NE 6.9 mph - N/A   Overcast
10:44 AM 33.1 °F 27.7 °F 26.1 °F 75% 30.42 in 10.0 mi NE 5.8 mph - N/A   Overcast
10:54 AM 33.1 °F 25.5 °F 26.1 °F 75% 30.41 in 10.0 mi NE 9.2 mph - N/A   Overcast
11:54 AM 33.1 °F 27.7 °F 27.0 °F 78% 30.37 in 10.0 mi Variable 5.8 mph - 0.00 in   Overcast
12:24 PM 33.1 °F 25.5 °F 27.0 °F 78% 30.34 in 10.0 mi ENE 9.2 mph - N/A   Overcast
12:54 PM 33.1 °F 24.9 °F 28.0 °F 82% 30.31 in 6.0 mi ENE 10.4 mph 18.4 mph 0.00 in Snow Light Snow
1:34 PM 33.1 °F 26.1 °F 28.9 °F 85% 30.30 in 10.0 mi ENE 8.1 mph - 0.00 in   Overcast
1:54 PM 33.1 °F 24.9 °F 30.0 °F 89% 30.29 in 4.0 mi ENE 10.4 mph - 0.00 in Snow Light Snow
1:59 PM 33.1 °F 25.5 °F 30.0 °F 89% 30.28 in 1.8 mi ENE 9.2 mph 17.3 mph 0.00 in Snow Light Snow
2:30 PM 33.1 °F 26.1 °F 30.0 °F 89% 30.27 in 0.8 mi ENE 8.1 mph 16.1 mph 0.00 in Snow Light Snow
2:40 PM 33.1 °F 26.1 °F 30.0 °F 89% 30.27 in 1.2 mi ENE 8.1 mph - 0.00 in Snow Light Snow
2:54 PM 33.1 °F 24.9 °F 30.0 °F 89% 30.27 in 1.8 mi ENE 10.4 mph - 0.01 in Snow Light Snow
3:01 PM 33.1 °F 25.5 °F 30.0 °F 89% 30.26 in 2.0 mi ENE 9.2 mph - 0.00 in Snow Light Snow
3:36 PM 32.0 °F 24.8 °F 30.0 °F 92% 30.24 in 1.2 mi ENE 8.1 mph - 0.00 in Snow Light Snow
3:43 PM 32.0 °F 25.6 °F 30.0 °F 92% 30.23 in 1.0 mi NE 6.9 mph - 0.00 in Snow Light Snow
3:51 PM 32.0 °F 26.4 °F 30.2 °F 93% 30.23 in 1.5 mi ENE 5.8 mph - 0.00 in Snow Light Snow
3:54 PM 32.0 °F 25.6 °F 30.0 °F 92% 30.23 in 1.5 mi NE 6.9 mph - 0.00 in Snow Light Snow
4:20 PM 32.0 °F 26.4 °F 30.0 °F 92% 30.21 in 1.0 mi NE 5.8 mph - 0.00 in Snow Light Snow
4:28 PM 32.0 °F 25.6 °F 30.0 °F 92% 30.20 in 1.0 mi NNE 6.9 mph - 0.00 in Snow Light Snow
4:36 PM 32.0 °F 25.6 °F 30.0 °F 92% 30.20 in 1.5 mi NNE 6.9 mph - 0.00 in Snow Light Snow
4:45 PM 30.9 °F 22.8 °F 30.0 °F 96% 30.19 in 2.0 mi NNE 9.2 mph - 0.00 in Snow Light Snow
4:54 PM 30.9 °F 22.8 °F 30.0 °F 96% 30.18 in 2.0 mi NNE 9.2 mph - 0.00 in Snow Light Snow
5:05 PM 32.0 °F 26.4 °F 30.0 °F 92% 30.16 in 4.0 mi NE 5.8 mph - 0.00 in Snow Light Snow
5:22 PM 32.0 °F 25.6 °F 30.0 °F 92% 30.16 in 5.0 mi NE 6.9 mph - N/A Rain Light Freezing Rain
5:54 PM 32.0 °F 24.2 °F 30.0 °F 92% 30.15 in 4.0 mi NNE 9.2 mph - N/A Rain Light Freezing Rain
6:24 PM 32.0 °F 25.6 °F 30.0 °F 92% 30.12 in 3.0 mi NE 6.9 mph - 0.08 in Rain Light Freezing Rain
6:54 PM 32.0 °F 24.2 °F 30.0 °F 92% 30.10 in 6.0 mi NNE 9.2 mph - 0.14 in Rain Light Freezing Rain
7:07 PM 32.0 °F 24.2 °F 30.0 °F 92% 30.08 in 7.0 mi NNE 9.2 mph - 0.01 in Rain Light Freezing Rain
7:32 PM 32.0 °F - 30.9 °F 96% 30.06 in 4.0 mi Calm Calm - 0.03 in Rain Light Freezing Rain
7:54 PM 32.0 °F 27.5 °F 30.0 °F 92% 30.05 in 5.0 mi Variable 4.6 mph - 0.06 in Rain Light Freezing Rain
8:20 PM 32.0 °F 25.6 °F 30.0 °F 92% 30.00 in 5.0 mi Variable 6.9 mph - 0.04 in Rain Light Freezing Rain
8:29 PM 32.0 °F 24.8 °F 30.9 °F 96% 29.99 in 3.0 mi NE 8.1 mph - 0.05 in   Overcast
8:46 PM 32.0 °F 24.8 °F 30.9 °F 96% 29.97 in 3.0 mi NNE 8.1 mph - 0.07 in   Overcast
8:54 PM 32.0 °F 24.8 °F 30.9 °F 96% 29.96 in 2.5 mi NE 8.1 mph - 0.08 in   Overcast
9:10 PM 32.0 °F 24.8 °F 30.9 °F 96% 29.93 in 4.0 mi ENE 8.1 mph - 0.02 in   Overcast
9:42 PM 33.1 °F 27.7 °F 32.0 °F 96% 29.88 in 2.5 mi NE 5.8 mph - 0.07 in Rain Rain
9:51 PM 33.8 °F 28.6 °F 32.0 °F 93% 29.87 in 4.0 mi NE 5.8 mph - 0.08 in Rain Light Rain
9:54 PM 33.1 °F 27.7 °F 32.0 °F 96% 29.87 in 4.0 mi NE 5.8 mph - 0.08 in Rain Light Rain
10:20 PM 33.1 °F 26.9 °F 32.0 °F 96% 29.82 in 2.5 mi NNE 6.9 mph - 0.03 in Rain Light Rain
10:33 PM 34.0 °F 29.8 °F 33.1 °F 96% 29.79 in 3.0 mi NE 4.6 mph - 0.05 in Rain Light Rain
10:54 PM 34.0 °F 28.8 °F 32.0 °F 92% 29.77 in 3.0 mi NNE 5.8 mph - 0.08 in Rain Rain
11:03 PM 34.0 °F 25.5 °F 33.1 °F 96% 29.74 in 2.5 mi NNE 11.5 mph - 0.03 in Rain Rain
11:26 PM 35.1 °F 31.0 °F 34.0 °F 96% 29.71 in 3.0 mi NE 4.6 mph - 0.10 in Rain Rain
11:54 PM 35.1 °F 30.1 °F 34.0 °F 96% 29.68 in 3.0 mi North 5.8 mph - 0.13 in Rain Light Rain